Location: Burla
(50.9568°N, 10.4983°E)
Time: 12:10:08
(UTC+00:00)

BREEZE-M DEB (TANK) - Pass Details

Date: 18 January 2026
Orbit: 359 x 16119 km, 49.4° (Epoch: 16 February)

Event Time Altitude Azimuth Distance (km) Brightness Sun altitude
Exits shadow 04:19:11 47° 252° (WSW) 1,859 4.5 -26.6°
Maximum altitude 04:22:02 83° 171° (S) 1,959 4.9 -26.2°
Drops below altitude 10° 04:54:56 10° 91° (E) 12,045 10.2 -21.0°
Sets 05:15:46 0° 94° (E) 16,491 11.5 -17.7°
